Northeast Philadelphia, PA

2:36 PM EST on November 13, 2019 (GMT -0500)
Northeast Philadelphia

Weather History for KPNE - September, 2019

Change the Weather History Date:

Tuesday, September 24, 2019

  Actual Average Record
Temperature  
Mean Temperature 72 °F -  
Max Temperature 81 °F 71 °F 91 °F (2017)
Min Temperature 62 °F 52 °F 42 °F (1998)
Cooling Degree Days 7    
Growing Degree Days 22 (Base 50)    
Moisture  
Dew Point 54 °F    
Average Humidity 54    
Maximum Humidity 75    
Minimum Humidity 36    
Precipitation  
Precipitation 0.00 in - - ()
Sea Level Pressure  
Sea Level Pressure 29.85 in    
Wind  
Wind Speed 6 mph ()    
Max Wind Speed 15 mph    
Max Gust Speed 21 mph    
Visibility 10.0 miles    
Events      
Averages and records for this station are not official NWS values.
T = Trace of Precipitation, MM = Missing Value Source: Averaged Metar Reports

Daily Weather History Graph

Daily Weather History Graph

Search for Another Location

Airport or City:

Astronomy

Sep. 24, 2019 Rise Set
Actual Time 6:49 AM EDT 6:54 PM EDT
Civil Twilight 6:22 AM EDT 7:21 PM EDT
Nautical Twilight 5:50 AM EDT 7:52 PM EDT
Astronomical Twilight 5:18 AM EDT 8:24 PM EDT
Moon 1:31 AM EDT (9/24) 4:38 PM EDT (9/24)
Length of Visible Light 12h 58m
Length of Day
12h 04m
Waning Crescent, 23% of the Moon is Illuminated
Sep 24
Waning Crescent
Sep 28
New
Oct 5
First Quarter
Oct 13
Full
Oct 21
Last Quarter

Hourly Weather History & Observations

Time (EDT) Temp. Dew Point Humidity Pressure Visibility Wind Dir Wind Speed Gust Speed Precip Events Conditions
12:54 AM 77.0 °F 64.9 °F 66% 29.81 in 10.0 mi WNW 8.1 mph - 0.00 in   Overcast
1:54 AM 75.0 °F 63.0 °F 66% 29.81 in 10.0 mi WNW 5.8 mph - N/A   Mostly Cloudy
2:54 AM 73.0 °F 60.1 °F 64% 29.80 in 10.0 mi WNW 5.8 mph - N/A   Clear
3:54 AM 71.1 °F 59.0 °F 66% 29.80 in 10.0 mi NW 5.8 mph - N/A   Clear
4:54 AM 69.1 °F 59.0 °F 70% 29.81 in 10.0 mi NW 4.6 mph - N/A   Clear
5:54 AM 68.0 °F 57.9 °F 70% 29.83 in 10.0 mi WNW 4.6 mph - N/A   Clear
6:54 AM 64.9 °F 57.0 °F 75% 29.84 in 10.0 mi West 4.6 mph - N/A   Clear
7:54 AM 69.1 °F 57.9 °F 68% 29.86 in 10.0 mi West 6.9 mph - N/A   Clear
8:54 AM 71.1 °F 55.0 °F 57% 29.86 in 10.0 mi West 9.2 mph - N/A   Clear
9:54 AM 73.0 °F 54.0 °F 51% 29.87 in 10.0 mi WNW 10.4 mph - N/A   Clear
10:54 AM 73.9 °F 54.0 °F 50% 29.87 in 10.0 mi WNW 10.4 mph 18.4 mph N/A   Mostly Cloudy
11:54 AM 78.1 °F 54.0 °F 43% 29.86 in 10.0 mi NW 6.9 mph - N/A   Mostly Cloudy
12:54 PM 79.0 °F 53.1 °F 40% 29.84 in 10.0 mi NW 11.5 mph 20.7 mph N/A   Scattered Clouds
1:54 PM 77.0 °F 53.1 °F 43% 29.83 in 10.0 mi WNW 10.4 mph - N/A   Overcast
2:54 PM 77.0 °F 51.1 °F 40% 29.83 in 10.0 mi NW 8.1 mph 18.4 mph N/A   Overcast
3:54 PM 80.1 °F 52.0 °F 38% 29.81 in 10.0 mi WNW 15.0 mph 20.7 mph N/A   Partly Cloudy
4:54 PM 80.1 °F 51.1 °F 36% 29.81 in 10.0 mi NNW 9.2 mph - N/A   Partly Cloudy
5:54 PM 77.0 °F 50.0 °F 39% 29.83 in 10.0 mi NNW 9.2 mph - N/A   Overcast
6:54 PM 73.9 °F 50.0 °F 43% 29.85 in 10.0 mi North 9.2 mph - N/A   Mostly Cloudy
7:54 PM 69.1 °F 48.9 °F 49% 29.87 in 10.0 mi North 5.8 mph - N/A   Clear
8:54 PM 68.0 °F 50.0 °F 52% 29.89 in 10.0 mi Calm Calm - N/A   Clear
9:54 PM 66.9 °F 50.0 °F 54% 29.89 in 10.0 mi NNW 3.5 mph - N/A   Clear
10:54 PM 64.9 °F 51.1 °F 61% 29.91 in 10.0 mi North 4.6 mph - N/A   Clear
11:54 PM 62.1 °F 50.0 °F 65% 29.91 in 10.0 mi North 5.8 mph - N/A   Partly Cloudy